Hattiesburg, MS

4:23 AM CST on January 16, 2018 (GMT -0600)
Chain Municipal

Weather History for KHBG - April, 2012

Change the Weather History Date:

Wednesday, April 4, 2012

  Actual Average Record
Temperature  
Mean Temperature 68 °F 63 °F  
Max Temperature 76 °F 75 °F 87 °F (2011)
Min Temperature 60 °F 50 °F 31 °F (1987)
Degree Days  
Heating Degree Days 0 5  
Month to date heating degree days 0 20  
Since 1 July heating degree days 1373 1915  
Cooling Degree Days 3 2  
Month to date cooling degree days 30 8  
Year to date cooling degree days 218 56  
Growing Degree Days 19 (Base 50)    
Moisture  
Dew Point 61 °F    
Average Humidity 76    
Maximum Humidity 93    
Minimum Humidity 58    
Precipitation  
Precipitation 0.41 in 0.18 in 3.64 in (1979)
Month to date precipitation 1.12 0.77  
Year to date precipitation 23.29 17.40  
Sea Level Pressure  
Sea Level Pressure 29.89 in    
Wind  
Wind Speed 5 mph (WSW)    
Max Wind Speed 26 mph    
Max Gust Speed 30 mph    
Visibility 9 miles    
Events Rain , Thunderstorm    
T = Trace of Precipitation, MM = Missing Value Source: NWS Daily Summary

Daily Weather History Graph

Daily Weather History Graph

Search for Another Location

Airport or City:

Trip Planner

Search our weather history database for the weather conditions in past years. The results will help you decide how hot, cold, wet, or windy it might be!

Date:

Astronomy

Apr. 04, 2012 Rise Set
Actual Time 6:41 AM CDT 7:18 PM CDT
Civil Twilight 6:16 AM CDT 7:43 PM CDT
Nautical Twilight 5:48 AM CDT 8:11 PM CDT
Astronomical Twilight 5:18 AM CDT 8:41 PM CDT
Moon 5:17 PM CDT (4/4) 4:55 AM CDT (4/4)
Length of Visible Light 13h 26m
Length of Day
12h 37m
Waxing Gibbous, 94% of the Moon is Illuminated
Apr 4
Waxing Gibbous
Apr 6
Full
Apr 13
Last Quarter
Apr 21
New
Apr 29
First Quarter

Hourly Weather History & Observations

Time (CDT) Temp. Dew Point Humidity Pressure Visibility Wind Dir Wind Speed Gust Speed Precip Events Conditions
12:02 AM 64.4 °F 60.8 °F 88% 29.98 in 10.0 mi North 4.6 mph - 0.01 in Rain Light Rain
12:53 AM 64.9 °F 60.1 °F 84% 29.94 in 9.0 mi ENE 9.2 mph - 0.07 in Rain Rain
1:25 AM 64.4 °F 60.8 °F 88% 29.96 in 6.0 mi NW 4.6 mph - 0.07 in Rain , Thunderstorm Thunderstorms and Rain
1:40 AM 64.4 °F 60.8 °F 88% 29.96 in 4.0 mi West 3.5 mph - 0.12 in Rain Heavy Rain
1:48 AM 64.4 °F 60.8 °F 88% 29.96 in 5.0 mi SW 8.1 mph - 0.14 in Rain , Thunderstorm Rain
1:53 AM 64.0 °F 60.1 °F 87% 29.95 in 7.0 mi SW 6.9 mph - 0.15 in Rain , Thunderstorm Rain
2:03 AM 64.4 °F 60.8 °F 88% 29.96 in 8.0 mi SW 5.8 mph - 0.01 in Rain Light Rain
2:39 AM 64.4 °F 60.8 °F 88% 29.96 in 10.0 mi SSW 11.5 mph 17.3 mph 0.04 in Rain , Thunderstorm Light Rain
2:53 AM 64.0 °F 61.0 °F 90% 29.94 in 8.0 mi SSW 9.2 mph - 0.06 in Rain , Thunderstorm Thunderstorms and Rain
3:28 AM 64.4 °F 60.8 °F 88% 29.88 in 10.0 mi Variable 6.9 mph - 0.08 in Rain Light Rain
4:53 AM 66.0 °F 57.9 °F 75% 29.90 in 10.0 mi NW 10.4 mph 17.3 mph 0.00 in   Overcast
5:53 AM 64.0 °F 60.1 °F 87% 29.94 in 10.0 mi Calm Calm - N/A   Clear
6:53 AM 64.0 °F 59.0 °F 84% 30.00 in 10.0 mi NW 8.1 mph - 0.00 in Rain Light Rain
7:53 AM 63.0 °F 59.0 °F 87% 30.00 in 10.0 mi WNW 5.8 mph - 0.00 in Rain Light Rain
8:53 AM 63.0 °F 60.1 °F 90% 30.01 in 9.0 mi West 3.5 mph - 0.03 in Rain Light Rain
10:53 AM 64.0 °F 60.1 °F 87% 29.86 in 10.0 mi Calm Calm - N/A   Clear
11:53 AM 66.9 °F 61.0 °F 81% 29.86 in 10.0 mi West 5.8 mph - N/A   Clear
12:53 PM 71.1 °F 61.0 °F 70% 29.84 in 10.0 mi SSW 8.1 mph - N/A   Clear
1:53 PM 73.0 °F 60.1 °F 64% 29.81 in 10.0 mi SW 8.1 mph - N/A   Clear
2:53 PM 73.9 °F 60.1 °F 62% 29.82 in 10.0 mi South 6.9 mph - N/A   Clear
3:53 PM 75.0 °F 59.0 °F 57% 29.79 in 10.0 mi SSW 8.1 mph - N/A   Clear
4:53 PM 75.9 °F 61.0 °F 60% 29.80 in 10.0 mi SSW 3.5 mph - N/A   Clear
5:53 PM 75.0 °F 62.1 °F 64% 29.79 in 10.0 mi SSW 3.5 mph - N/A   Clear
6:53 PM 73.0 °F 64.9 °F 76% 29.80 in 10.0 mi Calm Calm - N/A   Clear
7:53 PM 70.0 °F 64.9 °F 84% 29.80 in 10.0 mi Calm Calm - N/A   Clear
8:53 PM 66.9 °F 64.0 °F 90% 29.79 in 10.0 mi Calm Calm - N/A   Clear
9:53 PM 66.0 °F 63.0 °F 90% 29.81 in 10.0 mi Calm Calm - N/A   Clear
10:53 PM 64.0 °F 62.1 °F 93% 29.81 in 9.0 mi Calm Calm - N/A   Clear
11:53 PM 63.0 °F 60.1 °F 90% 29.80 in - North - - N/A   Unknown